Location: Allisons_Woods
(35.8920°N, 81.8170°W)
Time: 13:14:37
(UTC-04:00)

Daily predictions for brighter satellites

Satellite Brightness Start Highest point End
(mag) Time Altitude Azimuth Time Altitude Azimuth Time Altitude Azimuth
ATLAS CENTAUR R/B 3.1 19:26:15 10° SSW 19:30:11 60° ESE 19:41:38 10° NE
SJ-6B 3.4 19:37:29 10° SE 19:41:09 38° ENE 19:44:54 10° N
Cosmos 1371 Rocket 4.0 19:35:55 10° NNW 19:41:14 81° ENE 19:46:35 10° SSE
GPS 2-04 Rocket1 3.9 19:39:11 10° SSW 19:41:55 22° SSE 19:44:44 10° E
IDEFIX/ARIANE 42P 3.8 19:40:46 10° S 19:45:46 48° W 19:50:50 10° NNW
Cosmos 2333 Rocket 4.1 19:40:42 10° SW 19:45:54 34° WNW 19:51:08 10° N
COSMO-SKYMED 1 3.0 19:41:36 10° N 19:45:56 69° WNW 19:50:13 10° SSW
Cosmos 192 4.4 19:44:44 10° S 19:49:36 61° ESE 19:54:30 10° NNE
NOAA 12 4.3 19:45:15 10° SSE 19:50:18 51° ENE 19:55:24 10° N
Cosmos 1758 4.2 19:48:16 10° SSE 19:51:46 28° E 19:55:18 10° NNE
USA 215 3.3 19:51:33 10° NE 19:58:05 71° SE 20:04:35 10° SW
Aureole 2 Rocket 3.4 19:53:54 10° SSW 19:58:15 67° WNW 20:02:33 10° NNE
Cosmos 1624 Rocket 4.0 19:53:22 10° NNW 19:58:36 86° WSW 20:03:47 10° SSE
OAO 3 Rocket 3.2 19:53:52 10° W 19:58:36 79° S 20:02:48 14° E
ISS -1.7 19:56:48 10° S 19:59:09 19° SE 20:00:32 15° E
Cosmos 1484 Rocket 3.5 19:56:05 10° S 19:59:49 58° W 20:03:40 10° NNW
SAR-Lupe-1 3.9 19:57:13 10° SSE 20:00:45 74° ENE 20:04:18 10° N
SL-19 R/B 4.4 19:55:36 10° SSE 20:01:11 89° W 20:07:05 10° NNW
ASTRO E2 3.4 20:01:20 10° WSW 20:05:12 44° S 20:08:09 16° ESE
Cosmos 1766 Rocket 3.9 20:01:29 10° N 20:05:38 42° E 20:09:44 10° SSE
CZ-4C R/B 4.3 20:02:34 10° W 20:06:56 25° NW 20:11:45 10° N
ALOS 3.3 20:04:00 11° ESE 20:07:35 24° ENE 20:11:20 10° NNE
Cosmos 2034 Rocket 4.1 20:03:10 10° SSE 20:09:15 57° E 20:15:25 10° NNE
Cosmos 2237 Rocket 4.5 20:04:35 10° WSW 20:09:17 26° WNW 20:14:00 10° N
Cosmos 1464 Rocket 4.0 20:04:49 10° S 20:11:05 82° E 20:17:18 10° N
BREEZE-M TANK 3.3 20:02:35 10° WNW 20:12:21 70° SW 20:15:15 13° SE
OAO 1 Rocket 4.5 20:07:30 10° WSW 20:12:52 76° S 20:16:48 19° E
ATLAS 5 CENTAUR R/B 1.8 20:08:17 10° SSW 20:13:00 84° WNW 20:18:05 10° NNE
Helios 1B rocket 2.4 20:09:31 10° NNE 20:13:33 57° E 20:17:36 10° S
Meteor 1-29 3.3 20:10:42 10° NNE 20:14:05 43° E 20:17:25 10° S
Atlas Centaur 2 3.8 20:08:31 10° W 20:16:31 45° SSW 20:23:25 12° SE
Cosmos 1076 Rocket 3.4 20:12:37 10° N 20:16:57 73° E 20:21:17 10° SSE
SeaSat 1 3.5 20:14:57 10° NE 20:18:50 23° ESE 20:22:41 10° SSE
Cosmos-2242 3.0 20:15:53 10° S 20:20:08 57° E 20:24:27 10° NNE
Cosmos 1766 4.4 20:16:19 10° SSW 20:20:09 48° W 20:24:01 10° N
CZ-4B DEB 3.9 20:23:55 26° ENE 20:23:55 26° ENE 20:26:34 10° NNE
Cosmos 1452 Rocket 3.5 20:22:50 10° NNW 20:28:04 66° ENE 20:33:15 10° SSE
SL-16 R/B 3.6 20:23:53 10° SW 20:29:12 41° WNW 20:34:35 10° N
FREGAT/IRIS 3.5 20:26:39 10° S 20:29:39 51° W 20:32:41 10° NNW
NOSS 3-2 (A) 4.5 20:23:56 10° SW 20:29:44 47° NW 20:36:03 10° NNE
SEDSat Delta rocket 4.3 20:23:22 10° WSW 20:29:56 60° S 20:34:01 25° ESE
CZ-2D R/B 4.0 20:33:52 32° E 20:34:05 33° ENE 20:37:36 10° N
ATLAS CENTAUR R/B 3.6 20:31:28 10° WNW 20:34:43 23° WSW 20:37:46 10° SSW
Cosmos 1842 Rocket 3.9 20:31:22 10° SSE 20:35:22 38° E 20:39:23 10° NNE
SL-8 R/B 3.6 20:34:31 10° SW 20:39:18 85° SE 20:42:04 25° NE
Cosmos 1500 Rocket 4.2 20:35:16 10° NNE 20:39:19 34° ENE 20:39:25 34° E
Cosmos 1408 Rocket 3.8 20:35:04 10° NNW 20:39:24 69° W 20:43:40 10° S
Cosmos 1544 3.0 20:36:53 10° S 20:40:36 80° E 20:44:20 10° N
METEOR-M 4.4 20:35:18 10° S 20:40:37 72° WSW 20:45:59 10° NNW
Cosmos 468 4.5 20:36:44 10° SSW 20:42:00 85° WNW 20:47:16 10° NNE
Gbstr 26 Del rocket 3.4 20:40:33 10° SSW 20:44:42 46° SE 20:45:51 39° E
Cosmos 1953 3.0 20:41:48 10° SSW 20:45:42 55° W 20:49:37 10° N
H-2A R/B 2.9 20:50:09 51° ENE 20:50:09 51° ENE 20:53:50 10° N
Cosmos 1420 Rocket 4.1 20:44:57 10° N 20:50:10 57° ENE 20:52:00 37° SE
Cosmos 1805 4.3 20:46:42 10° SSW 20:50:29 47° W 20:54:19 10° N
FENGYUN 3A 3.5 20:47:47 17° SSE 20:51:53 71° ENE 20:57:15 10° N
Resurs 1-3 3.8 20:49:11 10° S 20:53:34 71° W 20:57:57 10° NNW
Resurs 01 Rocket 2.4 20:50:07 10° S 20:54:27 52° W 20:58:49 10° NNW
ASTEX 1 3.2 20:54:46 10° N 20:59:42 83° E 21:04:35 10° S
Abrixas 3.6 20:57:30 10° WSW 21:00:02 43° WNW 21:00:02 43° WNW
Cosmos 1346 4.5 20:59:30 10° NNW 21:01:23 34° NNW 21:01:23 34° NNW
Spot 2 Rocket 4.5 20:58:16 10° S 21:03:05 46° W 21:07:57 10° NNW
CENTAUR R/B 2.3 20:57:58 10° SSW 21:03:48 65° ESE 21:10:22 10° NE
Cosmos 1269 Rocket 4.3 20:59:13 10° SSW 21:04:28 70° WNW 21:09:44 10° NNE
Helios 1A 4.2 21:01:24 10° S 21:05:21 41° W 21:09:20 10° NNW
Cosmos 1048 Rocket 4.1 21:01:02 10° SSW 21:06:20 79° WNW 21:11:37 10° NNE
Cosmos 1743 Rocket 3.7 21:03:23 10° N 21:07:49 73° W 21:09:33 36° S
Cosmos 1943 3.0 21:06:42 10° SSW 21:12:18 71° ESE 21:17:54 10° NNE
Cosmos 1470 3.4 21:13:51 49° NNW 21:13:51 49° NNW 21:16:49 10° N
Cosmos 2369 Rocket 2.7 21:09:30 10° N 21:14:18 42° NE 21:14:18 42° NE
Cosmos 1943 Rocket 4.0 21:14:26 10° N 21:16:39 17° NNE 21:16:39 17° NNE
GPS 2-04 Rocket1 4.2 21:17:51 10° WSW 21:19:40 28° WSW 21:19:40 28° WSW
Nadezhda 4 Rocket 4.4 21:16:25 10° NNW 21:22:34 61° W 21:28:39 10° S
GP-B 4.2 21:20:54 10° N 21:23:34 36° N 21:23:34 36° N
Cosmos 1655 Rocket 4.5 21:21:49 10° N 21:26:29 43° NE 21:26:29 43° NE
Cosmos 1092 Rocket 4.0 21:23:26 10° N 21:29:37 75° W 21:32:27 34° S
Cosmos 2142 Rocket 4.4 21:25:21 10° S 21:31:42 87° W 21:38:08 10° N
ISS -0.4 21:32:26 10° WSW 21:33:16 16° W 21:33:16 16° W
Cosmos 1674 4.5 21:34:06 10° NNW 21:36:37 31° NW 21:36:37 31° NW
Cosmos 1634 Rocket 4.2 21:35:07 10° SSW 21:41:20 68° W 21:47:32 10° N
OAO 3 Rocket 4.2 21:37:20 10° W 21:40:37 43° W 21:40:37 43° W
Cosmos 2026 Rocket 4.1 21:38:00 10° N 21:42:57 60° NNE 21:42:57 60° NNE
ALOS 4.1 21:42:33 19° SW 21:44:52 28° W 21:48:54 10° NW
SeaSat 1 3.6 21:51:49 10° N 21:56:25 40° WNW 22:00:59 10° SW
CENTAUR R/B 4.5 22:50:12 10° W 22:55:05 23° NW 23:00:25 10° N
